Location: Newark
(43.4306°N, 0.3089°E)
Time: 21:03:02
(UTC+00:00)

A-11 Canister half - Pass Details

Date: 01 September 2019
Orbit: 1514 x 1686 km, 47.2° (Epoch: 23 October)

Event Time Altitude Azimuth Distance (km) Brightness Sun altitude
Rises 20:25:18 0° 292° (WNW) 4,719 13.1 -19.4°
Reaches altitude 10° 20:28:19 10° 292° (WNW) 3,754 12.2 -19.8°
Maximum altitude 20:37:51 79° 208° (SSW) 1,632 9.0 -21.3°
Enters shadow 20:43:01 33° 127° (SE) 2,477 9.5 -22.0°
